Вернуться в каталог

COSMOS 1420

АктивенНавигацияLEO
NORAD 13648·PAYLOAD·🇷🇺 Russia

Запущен Nov 11, 1982 с Plesetsk Cosmodrome

Loading…

Ближайшие Пролёты (ближайшие 24 часа)

TLE

СвежийSource: Space-Track

Эпоха: Sep 14, 2026, 13:49 UTC

1 13648U 82109A   26257.57582011  .00000087  00000-0  39886-4 0  9996
2 13648  73.9959  17.9204 0018752 107.9755 252.3442 14.34814782292407

Отслеживайте COSMOS 1420 в реальном времени с AllMySat

Download on the App Store